Time,TemperatureF,DewpointF,PressureIn,WindDirection,WindDirectionDegrees,WindSpeedMPH,WindSpeedGustMPH,Humidity,HourlyPrecipIn,Conditions,Clouds,dailyrainin,SoftwareType,DateUTC
2013-08-09 00:04:00,66.9,42.4,29.71,West,262,0.0,0.0,41,0.00,,,0.00,Wunderground v.1.15,2013-08-09 07:04:00,
2013-08-09 00:10:00,66.6,42.2,29.71,West,265,0.0,0.0,41,0.00,,,0.00,Wunderground v.1.15,2013-08-09 07:10:00,
2013-08-09 00:16:00,66.5,42.1,29.71,WNW,284,0.0,0.0,41,0.00,,,0.00,Wunderground v.1.15,2013-08-09 07:16:00,
2013-08-09 00:22:00,65.9,41.5,29.71,NNE,24,0.0,0.0,41,0.00,,,0.00,Wunderground v.1.15,2013-08-09 07:22:00,
2013-08-09 00:28:00,64.7,42.3,29.71,NW,311,0.0,0.0,44,0.00,,,0.00,Wunderground v.1.15,2013-08-09 07:28:00,
2013-08-09 00:34:00,64.5,42.7,29.72,West,271,0.0,0.0,45,0.00,,,0.00,Wunderground v.1.15,2013-08-09 07:34:00,
2013-08-09 00:40:00,64.7,42.3,29.72,WSW,257,0.0,0.0,44,0.00,,,0.00,Wunderground v.1.15,2013-08-09 07:40:00,
2013-08-09 00:46:00,64.9,42.5,29.72,WSW,258,0.0,0.0,44,0.00,,,0.00,Wunderground v.1.15,2013-08-09 07:46:00,
2013-08-09 00:52:00,64.7,42.9,29.71,SW,221,0.0,0.0,45,0.00,,,0.00,Wunderground v.1.15,2013-08-09 07:52:00,
2013-08-09 00:58:00,64.8,42.9,29.71,West,266,0.0,0.0,45,0.00,,,0.00,Wunderground v.1.15,2013-08-09 07:58:00,
2013-08-09 01:04:00,64.9,43.0,29.71,West,272,0.0,0.0,45,0.00,,,0.00,Wunderground v.1.15,2013-08-09 08:04:00,
2013-08-09 01:10:00,65.1,42.6,29.71,WSW,257,0.0,0.0,44,0.00,,,0.00,Wunderground v.1.15,2013-08-09 08:10:00,
2013-08-09 01:15:00,65.2,42.1,29.71,West,273,0.0,0.0,43,0.00,,,0.00,Wunderground v.1.15,2013-08-09 08:15:00,
2013-08-09 01:21:00,65.2,42.1,29.70,West,272,0.0,0.0,43,0.00,,,0.00,Wunderground v.1.15,2013-08-09 08:21:00,
2013-08-09 01:27:00,65.3,41.6,29.70,West,259,0.0,0.0,42,0.00,,,0.00,Wunderground v.1.15,2013-08-09 08:27:00,
2013-08-09 01:33:00,65.3,41.6,29.70,West,269,0.0,0.0,42,0.00,,,0.00,Wunderground v.1.15,2013-08-09 08:33:00,
2013-08-09 01:39:00,65.3,41.6,29.70,WSW,258,0.0,0.0,42,0.00,,,0.00,Wunderground v.1.15,2013-08-09 08:39:00,
2013-08-09 01:45:00,65.1,41.4,29.70,West,262,0.0,0.0,42,0.00,,,0.00,Wunderground v.1.15,2013-08-09 08:45:00,
2013-08-09 01:51:00,65.0,40.7,29.70,West,266,0.0,0.0,41,0.00,,,0.00,Wunderground v.1.15,2013-08-09 08:51:00,
2013-08-09 01:57:00,65.2,40.9,29.70,West,259,0.0,0.0,41,0.00,,,0.00,Wunderground v.1.15,2013-08-09 08:57:00,
2013-08-09 02:03:00,65.3,41.0,29.70,West,262,0.0,0.0,41,0.00,,,0.00,Wunderground v.1.15,2013-08-09 09:03:00,
2013-08-09 02:09:00,65.2,40.9,29.70,West,280,0.0,0.0,41,0.00,,,0.00,Wunderground v.1.15,2013-08-09 09:09:00,
2013-08-09 02:15:00,65.3,41.0,29.70,WSW,256,0.0,0.0,41,0.00,,,0.00,Wunderground v.1.15,2013-08-09 09:15:00,
2013-08-09 02:21:00,65.3,41.0,29.70,West,276,0.0,0.0,41,0.00,,,0.00,Wunderground v.1.15,2013-08-09 09:21:00,
2013-08-09 02:27:00,64.9,40.6,29.70,West,267,0.0,0.0,41,0.00,,,0.00,Wunderground v.1.15,2013-08-09 09:27:00,
2013-08-09 02:33:00,64.4,40.2,29.70,WNW,282,0.0,0.0,41,0.00,,,0.00,Wunderground v.1.15,2013-08-09 09:33:00,
2013-08-09 02:38:00,63.9,40.3,29.70,West,259,0.0,0.0,42,0.00,,,0.00,Wunderground v.1.15,2013-08-09 09:38:00,
2013-08-09 02:44:00,63.3,40.4,29.70,WSW,248,0.0,0.0,43,0.00,,,0.00,Wunderground v.1.15,2013-08-09 09:44:00,
2013-08-09 02:50:00,62.9,40.0,29.70,WSW,248,0.0,0.0,43,0.00,,,0.00,Wunderground v.1.15,2013-08-09 09:50:00,
2013-08-09 02:56:00,62.7,40.5,29.69,WSW,250,0.0,0.0,44,0.00,,,0.00,Wunderground v.1.15,2013-08-09 09:56:00,
2013-08-09 03:02:00,62.9,40.6,29.69,WSW,255,0.0,2.0,44,0.00,,,0.00,Wunderground v.1.15,2013-08-09 10:02:00,
2013-08-09 03:08:00,62.6,40.4,29.69,WSW,252,1.0,2.0,44,0.00,,,0.00,Wunderground v.1.15,2013-08-09 10:08:00,
2013-08-09 03:14:00,62.9,41.2,29.69,WSW,254,3.0,7.0,45,0.00,,,0.00,Wunderground v.1.15,2013-08-09 10:14:00,
2013-08-09 03:20:00,63.9,41.5,29.69,West,276,4.0,4.0,44,0.00,,,0.00,Wunderground v.1.15,2013-08-09 10:20:00,
2013-08-09 03:26:00,64.7,42.3,29.69,WSW,254,5.0,5.0,44,0.00,,,0.00,Wunderground v.1.15,2013-08-09 10:26:00,
2013-08-09 03:32:00,64.8,41.8,29.69,West,263,4.0,5.0,43,0.00,,,0.00,Wunderground v.1.15,2013-08-09 10:32:00,
2013-08-09 03:38:00,64.5,42.1,29.69,West,262,1.0,5.0,44,0.00,,,0.00,Wunderground v.1.15,2013-08-09 10:38:00,
2013-08-09 03:44:00,64.0,42.2,29.68,WSW,256,0.0,0.0,45,0.00,,,0.00,Wunderground v.1.15,2013-08-09 10:44:00,
2013-08-09 03:50:00,64.0,42.8,29.68,West,262,0.0,0.0,46,0.00,,,0.00,Wunderground v.1.15,2013-08-09 10:50:00,
2013-08-09 03:56:00,64.1,42.3,29.68,West,262,0.0,0.0,45,0.00,,,0.00,Wunderground v.1.15,2013-08-09 10:56:00,
2013-08-09 04:02:00,63.9,42.7,29.68,West,262,0.0,0.0,46,0.00,,,0.00,Wunderground v.1.15,2013-08-09 11:02:00,
2013-08-09 04:08:00,63.9,42.7,29.68,WSW,253,0.0,0.0,46,0.00,,,0.00,Wunderground v.1.15,2013-08-09 11:08:00,
2013-08-09 04:14:00,63.9,42.7,29.68,WSW,237,0.0,0.0,46,0.00,,,0.00,Wunderground v.1.15,2013-08-09 11:14:00,
2013-08-09 04:20:00,63.8,42.6,29.68,WSW,245,0.0,0.0,46,0.00,,,0.00,Wunderground v.1.15,2013-08-09 11:20:00,
2013-08-09 04:26:00,63.7,42.5,29.68,West,260,0.0,0.0,46,0.00,,,0.00,Wunderground v.1.15,2013-08-09 11:26:00,
2013-08-09 04:32:00,63.4,42.2,29.69,WSW,245,0.0,0.0,46,0.00,,,0.00,Wunderground v.1.15,2013-08-09 11:32:00,
2013-08-09 04:38:00,62.9,42.4,29.68,SW,234,0.0,0.0,47,0.00,,,0.00,Wunderground v.1.15,2013-08-09 11:38:00,
2013-08-09 04:44:00,62.7,42.2,29.69,SW,231,0.0,0.0,47,0.00,,,0.00,Wunderground v.1.15,2013-08-09 11:44:00,
2013-08-09 04:49:00,62.7,42.2,29.69,SW,231,0.0,0.0,47,0.00,,,0.00,Wunderground v.1.15,2013-08-09 11:49:00,
2013-08-09 04:55:00,-999.9,-99.9,29.68,North,32767,-999.0,0.0,255,-99.99,,,0.00,Wunderground v.1.15,2013-08-09 11:55:00,
2013-08-09 05:00:00,-999.9,-99.9,29.68,North,32767,-999.0,0.0,255,-99.99,,,0.00,Wunderground v.1.15,2013-08-09 12:00:00,
2013-08-09 05:06:00,-999.9,-99.9,29.68,North,32767,-999.0,0.0,255,-99.99,,,0.00,Wunderground v.1.15,2013-08-09 12:06:00,
2013-08-09 05:11:00,-999.9,-99.9,29.68,North,32767,-999.0,0.0,255,-99.99,,,0.00,Wunderground v.1.15,2013-08-09 12:11:00,
2013-08-09 05:17:00,-999.9,-99.9,29.68,North,32767,-999.0,0.0,255,-99.99,,,0.00,Wunderground v.1.15,2013-08-09 12:17:00,
2013-08-09 05:23:00,-999.9,-99.9,29.68,North,32767,-999.0,0.0,255,-99.99,,,0.00,Wunderground v.1.15,2013-08-09 12:23:00,
2013-08-09 05:29:00,-999.9,-99.9,29.68,North,32767,-999.0,0.0,255,-99.99,,,0.00,Wunderground v.1.15,2013-08-09 12:29:00,
2013-08-09 05:35:00,-999.9,-99.9,29.68,North,32767,-999.0,0.0,255,-99.99,,,0.00,Wunderground v.1.15,2013-08-09 12:35:00,
2013-08-09 05:41:00,-999.9,-99.9,29.68,North,32767,-999.0,0.0,255,-99.99,,,0.00,Wunderground v.1.15,2013-08-09 12:41:00,
2013-08-09 05:47:00,-999.9,-99.9,29.69,North,32767,-999.0,0.0,255,-99.99,,,0.00,Wunderground v.1.15,2013-08-09 12:47:00,
2013-08-09 05:53:00,-999.9,-99.9,29.69,North,32767,-999.0,0.0,255,-99.99,,,0.00,Wunderground v.1.15,2013-08-09 12:53:00,
2013-08-09 05:59:00,-999.9,-99.9,29.69,North,32767,-999.0,0.0,255,-99.99,,,0.00,Wunderground v.1.15,2013-08-09 12:59:00,
2013-08-09 06:05:00,-999.9,-99.9,29.69,North,32767,-999.0,0.0,255,-99.99,,,0.00,Wunderground v.1.15,2013-08-09 13:05:00,
2013-08-09 06:10:00,-999.9,-99.9,29.69,North,32767,-999.0,0.0,255,-99.99,,,0.00,Wunderground v.1.15,2013-08-09 13:10:00,
2013-08-09 06:16:00,-999.9,-99.9,29.69,North,32767,-999.0,0.0,255,-99.99,,,0.00,Wunderground v.1.15,2013-08-09 13:16:00,
2013-08-09 06:22:00,-999.9,-99.9,29.69,North,32767,-999.0,0.0,255,-99.99,,,0.00,Wunderground v.1.15,2013-08-09 13:22:00,
2013-08-09 06:28:00,-999.9,-99.9,29.69,North,32767,-999.0,0.0,255,-99.99,,,0.00,Wunderground v.1.15,2013-08-09 13:28:00,
2013-08-09 06:33:00,-999.9,-99.9,29.69,North,32767,-999.0,0.0,255,-99.99,,,0.00,Wunderground v.1.15,2013-08-09 13:33:00,
2013-08-09 06:39:00,-999.9,-99.9,29.69,North,32767,-999.0,0.0,255,-99.99,,,0.00,Wunderground v.1.15,2013-08-09 13:39:00,
2013-08-09 06:45:00,-999.9,-99.9,29.70,North,32767,-999.0,0.0,255,-99.99,,,0.00,Wunderground v.1.15,2013-08-09 13:45:00,
2013-08-09 06:51:00,61.2,43.4,29.70,WSW,258,0.0,0.0,52,0.00,,,0.00,Wunderground v.1.15,2013-08-09 13:51:00,
2013-08-09 06:57:00,61.9,43.6,29.70,West,260,0.0,1.0,51,0.00,,,0.00,Wunderground v.1.15,2013-08-09 13:57:00,
2013-08-09 07:03:00,62.4,43.5,29.70,WSW,258,0.0,1.0,50,0.00,,,0.00,Wunderground v.1.15,2013-08-09 14:03:00,
2013-08-09 07:09:00,62.9,43.4,29.70,WSW,246,0.0,1.0,49,0.00,,,0.00,Wunderground v.1.15,2013-08-09 14:09:00,
2013-08-09 07:15:00,63.6,44.1,29.70,WSW,240,0.0,0.0,49,0.00,,,0.00,Wunderground v.1.15,2013-08-09 14:15:00,
2013-08-09 07:21:00,64.1,45.1,29.70,SW,222,0.0,0.0,50,0.00,,,0.00,Wunderground v.1.15,2013-08-09 14:21:00,
2013-08-09 07:27:00,64.7,45.1,29.70,SW,224,0.0,0.0,49,0.00,,,0.00,Wunderground v.1.15,2013-08-09 14:27:00,
2013-08-09 07:33:00,65.1,46.0,29.70,SW,217,0.0,0.0,50,0.00,,,0.00,Wunderground v.1.15,2013-08-09 14:33:00,
2013-08-09 07:39:00,65.5,45.8,29.71,SW,215,0.0,0.0,49,0.00,,,0.00,Wunderground v.1.15,2013-08-09 14:39:00,
2013-08-09 07:45:00,66.1,46.4,29.71,SW,216,0.0,0.0,49,0.00,,,0.00,Wunderground v.1.15,2013-08-09 14:45:00,
2013-08-09 07:51:00,67.1,45.0,29.71,WSW,256,0.0,0.0,45,0.00,,,0.00,Wunderground v.1.15,2013-08-09 14:51:00,
2013-08-09 07:57:00,67.8,45.1,29.71,WNW,282,0.0,0.0,44,0.00,,,0.00,Wunderground v.1.15,2013-08-09 14:57:00,
2013-08-09 08:03:00,68.2,44.8,29.71,WNW,285,0.0,0.0,43,0.00,,,0.00,Wunderground v.1.15,2013-08-09 15:03:00,
2013-08-09 08:09:00,68.5,45.1,29.71,WNW,284,0.0,0.0,43,0.00,,,0.00,Wunderground v.1.15,2013-08-09 15:09:00,
2013-08-09 08:15:00,68.9,44.9,29.71,NNW,330,0.0,0.0,42,0.00,,,0.00,Wunderground v.1.15,2013-08-09 15:15:00,
2013-08-09 08:21:00,69.2,44.5,29.71,West,269,0.0,0.0,41,0.00,,,0.00,Wunderground v.1.15,2013-08-09 15:21:00,
2013-08-09 08:27:00,69.5,44.8,29.72,WNW,302,0.0,0.0,41,0.00,,,0.00,Wunderground v.1.15,2013-08-09 15:27:00,
2013-08-09 08:33:00,69.5,44.1,29.72,WNW,287,0.0,0.0,40,0.00,,,0.00,Wunderground v.1.15,2013-08-09 15:33:00,
2013-08-09 08:39:00,69.8,44.4,29.72,West,260,0.0,0.0,40,0.00,,,0.00,Wunderground v.1.15,2013-08-09 15:39:00,
2013-08-09 08:45:00,69.8,44.4,29.71,WNW,286,0.0,0.0,40,0.00,,,0.00,Wunderground v.1.15,2013-08-09 15:45:00,
2013-08-09 08:51:00,70.2,44.1,29.71,WNW,294,0.0,0.0,39,0.00,,,0.00,Wunderground v.1.15,2013-08-09 15:51:00,
2013-08-09 08:57:00,70.9,44.0,29.71,NW,305,0.0,0.0,38,0.00,,,0.00,Wunderground v.1.15,2013-08-09 15:57:00,
2013-08-09 09:03:00,71.1,44.2,29.71,WNW,285,0.0,0.0,38,0.00,,,0.00,Wunderground v.1.15,2013-08-09 16:03:00,
2013-08-09 09:09:00,70.9,43.3,29.71,WNW,296,0.0,0.0,37,0.00,,,0.00,Wunderground v.1.15,2013-08-09 16:09:00,
2013-08-09 09:15:00,71.5,43.8,29.71,West,281,0.0,0.0,37,0.00,,,0.00,Wunderground v.1.15,2013-08-09 16:15:00,
2013-08-09 09:21:00,71.8,43.4,29.71,WNW,298,0.0,0.0,36,0.00,,,0.00,Wunderground v.1.15,2013-08-09 16:21:00,
2013-08-09 09:27:00,72.0,43.6,29.71,NNW,338,0.0,0.0,36,0.00,,,0.00,Wunderground v.1.15,2013-08-09 16:27:00,
2013-08-09 09:33:00,72.1,43.7,29.71,NE,45,0.0,0.0,36,0.00,,,0.00,Wunderground v.1.15,2013-08-09 16:33:00,
2013-08-09 09:39:00,72.6,44.1,29.71,WSW,257,0.0,0.0,36,0.00,,,0.00,Wunderground v.1.15,2013-08-09 16:39:00,
2013-08-09 09:45:00,73.3,43.2,29.71,WNW,293,0.0,0.0,34,0.00,,,0.00,Wunderground v.1.15,2013-08-09 16:45:00,
2013-08-09 09:51:00,73.7,42.0,29.71,NNE,13,0.0,0.0,32,0.00,,,0.00,Wunderground v.1.15,2013-08-09 16:51:00,
2013-08-09 09:57:00,73.5,42.6,29.71,WSW,252,0.0,0.0,33,0.00,,,0.00,Wunderground v.1.15,2013-08-09 16:57:00,
2013-08-09 10:03:00,73.9,43.0,29.70,NNW,344,0.0,0.0,33,0.00,,,0.00,Wunderground v.1.15,2013-08-09 17:03:00,
2013-08-09 10:09:00,73.9,43.0,29.71,NNE,20,0.0,0.0,33,0.00,,,0.00,Wunderground v.1.15,2013-08-09 17:09:00,
2013-08-09 10:15:00,73.9,43.0,29.70,WSW,245,0.0,0.0,33,0.00,,,0.00,Wunderground v.1.15,2013-08-09 17:15:00,
2013-08-09 10:21:00,74.0,43.1,29.70,WNW,302,0.0,0.0,33,0.00,,,0.00,Wunderground v.1.15,2013-08-09 17:21:00,
2013-08-09 10:27:00,74.3,42.5,29.70,SSW,205,0.0,0.0,32,0.00,,,0.00,Wunderground v.1.15,2013-08-09 17:27:00,
2013-08-09 10:32:00,74.7,42.0,29.70,SSE,148,0.0,0.0,31,0.00,,,0.00,Wunderground v.1.15,2013-08-09 17:32:00,
2013-08-09 10:38:00,75.2,42.5,29.70,SW,227,0.0,0.0,31,0.00,,,0.00,Wunderground v.1.15,2013-08-09 17:38:00,
2013-08-09 10:44:00,76.1,42.4,29.70,North,350,0.0,0.0,30,0.00,,,0.00,Wunderground v.1.15,2013-08-09 17:44:00,
2013-08-09 10:50:00,75.4,41.8,29.70,NNE,23,0.0,0.0,30,0.00,,,0.00,Wunderground v.1.15,2013-08-09 17:50:00,
2013-08-09 10:56:00,75.0,42.3,29.70,NNE,31,0.0,0.0,31,0.00,,,0.00,Wunderground v.1.15,2013-08-09 17:56:00,
2013-08-09 11:02:00,75.4,41.8,29.70,North,354,0.0,0.0,30,0.00,,,0.00,Wunderground v.1.15,2013-08-09 18:02:00,
2013-08-09 11:07:00,75.2,42.5,29.70,NW,317,0.0,0.0,31,0.00,,,0.00,Wunderground v.1.15,2013-08-09 18:07:00,
2013-08-09 11:13:00,76.3,42.6,29.70,WNW,285,0.0,0.0,30,0.00,,,0.00,Wunderground v.1.15,2013-08-09 18:13:00,
2013-08-09 11:19:00,76.1,42.4,29.70,SW,236,0.0,0.0,30,0.00,,,0.00,Wunderground v.1.15,2013-08-09 18:19:00,
2013-08-09 11:25:00,78.1,42.3,29.70,NW,314,0.0,0.0,28,0.00,,,0.00,Wunderground v.1.15,2013-08-09 18:25:00,
2013-08-09 11:31:00,78.4,41.6,29.70,NNW,338,0.0,0.0,27,0.00,,,0.00,Wunderground v.1.15,2013-08-09 18:31:00,
2013-08-09 11:37:00,78.3,42.5,29.69,SE,136,0.0,0.0,28,0.00,,,0.00,Wunderground v.1.15,2013-08-09 18:37:00,
2013-08-09 11:42:00,78.4,42.6,29.69,West,266,0.0,0.0,28,0.00,,,0.00,Wunderground v.1.15,2013-08-09 18:42:00,
2013-08-09 11:48:00,79.0,42.2,29.69,SSW,212,0.0,0.0,27,0.00,,,0.00,Wunderground v.1.15,2013-08-09 18:48:00,
2013-08-09 11:54:00,78.2,42.4,29.69,WSW,246,0.0,0.0,28,0.00,,,0.00,Wunderground v.1.15,2013-08-09 18:54:00,
2013-08-09 12:00:00,78.6,41.8,29.69,SW,234,0.0,0.0,27,0.00,,,0.00,Wunderground v.1.15,2013-08-09 19:00:00,
2013-08-09 12:06:00,77.8,41.1,29.69,SSW,200,0.0,0.0,27,0.00,,,0.00,Wunderground v.1.15,2013-08-09 19:06:00,
2013-08-09 12:11:00,78.2,41.5,29.69,SW,223,0.0,0.0,27,0.00,,,0.00,Wunderground v.1.15,2013-08-09 19:11:00,
2013-08-09 12:17:00,79.0,42.2,29.69,WNW,293,0.0,0.0,27,0.00,,,0.00,Wunderground v.1.15,2013-08-09 19:17:00,
2013-08-09 12:23:00,79.6,40.7,29.69,SE,127,0.0,0.0,25,0.00,,,0.00,Wunderground v.1.15,2013-08-09 19:23:00,
2013-08-09 12:29:00,79.4,40.5,29.69,ESE,114,0.0,0.0,25,0.00,,,0.00,Wunderground v.1.15,2013-08-09 19:29:00,
2013-08-09 12:35:00,79.4,40.5,29.68,SW,216,0.0,0.0,25,0.00,,,0.00,Wunderground v.1.15,2013-08-09 19:35:00,
2013-08-09 12:41:00,80.0,41.0,29.68,East,89,0.0,0.0,25,0.00,,,0.00,Wunderground v.1.15,2013-08-09 19:41:00,
2013-08-09 12:47:00,80.3,40.2,29.68,WSW,243,0.0,0.0,24,0.00,,,0.00,Wunderground v.1.15,2013-08-09 19:47:00,
2013-08-09 12:53:00,81.5,41.2,29.68,SW,223,0.0,0.0,24,0.00,,,0.00,Wunderground v.1.15,2013-08-09 19:53:00,
2013-08-09 12:59:00,80.9,40.7,29.68,SSW,199,0.0,0.0,24,0.00,,,0.00,Wunderground v.1.15,2013-08-09 19:59:00,
2013-08-09 13:05:00,80.8,40.6,29.68,NE,42,0.0,0.0,24,0.00,,,0.00,Wunderground v.1.15,2013-08-09 20:05:00,
2013-08-09 13:11:00,80.1,40.0,29.67,SE,128,0.0,0.0,24,0.00,,,0.00,Wunderground v.1.15,2013-08-09 20:11:00,
2013-08-09 13:17:00,80.8,40.6,29.67,SW,229,0.0,0.0,24,0.00,,,0.00,Wunderground v.1.15,2013-08-09 20:17:00,
2013-08-09 13:23:00,81.7,40.3,29.67,WSW,240,0.0,0.0,23,0.00,,,0.00,Wunderground v.1.15,2013-08-09 20:23:00,
2013-08-09 13:29:00,81.6,40.2,29.67,West,261,0.0,0.0,23,0.00,,,0.00,Wunderground v.1.15,2013-08-09 20:29:00,
2013-08-09 13:35:00,82.1,39.5,29.67,SW,214,0.0,0.0,22,0.00,,,0.00,Wunderground v.1.15,2013-08-09 20:35:00,
2013-08-09 13:41:00,82.1,40.6,29.67,SSE,165,0.0,0.0,23,0.00,,,0.00,Wunderground v.1.15,2013-08-09 20:41:00,
2013-08-09 13:47:00,82.7,40.0,29.66,SW,226,0.0,0.0,22,0.00,,,0.00,Wunderground v.1.15,2013-08-09 20:47:00,
2013-08-09 13:53:00,82.9,38.9,29.66,WNW,290,0.0,0.0,21,0.00,,,0.00,Wunderground v.1.15,2013-08-09 20:53:00,
2013-08-09 13:59:00,82.2,39.6,29.66,West,279,0.0,0.0,22,0.00,,,0.00,Wunderground v.1.15,2013-08-09 20:59:00,
2013-08-09 14:05:00,82.3,39.6,29.66,South,178,0.0,0.0,22,0.00,,,0.00,Wunderground v.1.15,2013-08-09 21:05:00,
2013-08-09 14:11:00,82.9,40.1,29.66,ESE,108,0.0,0.0,22,0.00,,,0.00,Wunderground v.1.15,2013-08-09 21:11:00,
2013-08-09 14:17:00,82.0,39.4,29.66,NE,45,0.0,0.0,22,0.00,,,0.00,Wunderground v.1.15,2013-08-09 21:17:00,
2013-08-09 14:23:00,82.8,38.9,29.65,NNE,12,0.0,0.0,21,0.00,,,0.00,Wunderground v.1.15,2013-08-09 21:23:00,
2013-08-09 14:29:00,82.8,37.6,29.65,SW,235,0.0,0.0,20,0.00,,,0.00,Wunderground v.1.15,2013-08-09 21:29:00,
2013-08-09 14:35:00,83.0,36.5,29.65,WSW,246,0.0,0.0,19,0.00,,,0.00,Wunderground v.1.15,2013-08-09 21:35:00,
2013-08-09 14:41:00,82.8,37.6,29.65,WSW,245,0.0,0.0,20,0.00,,,0.00,Wunderground v.1.15,2013-08-09 21:41:00,
2013-08-09 14:47:00,82.6,37.5,29.64,SW,231,0.0,0.0,20,0.00,,,0.00,Wunderground v.1.15,2013-08-09 21:47:00,
2013-08-09 14:53:00,82.9,37.7,29.64,WSW,238,0.0,0.0,20,0.00,,,0.00,Wunderground v.1.15,2013-08-09 21:53:00,
2013-08-09 14:59:00,84.0,37.3,29.64,WSW,243,0.0,0.0,19,0.00,,,0.00,Wunderground v.1.15,2013-08-09 21:59:00,
2013-08-09 15:05:00,84.3,37.5,29.64,WNW,300,0.0,0.0,19,0.00,,,0.00,Wunderground v.1.15,2013-08-09 22:05:00,
2013-08-09 15:11:00,84.4,37.6,29.64,ESE,103,0.0,0.0,19,0.00,,,0.00,Wunderground v.1.15,2013-08-09 22:11:00,
2013-08-09 15:17:00,84.1,37.4,29.64,ESE,117,0.0,0.0,19,0.00,,,0.00,Wunderground v.1.15,2013-08-09 22:17:00,
2013-08-09 15:23:00,84.0,37.3,29.64,SSE,148,0.0,0.0,19,0.00,,,0.00,Wunderground v.1.15,2013-08-09 22:23:00,
2013-08-09 15:29:00,83.7,38.4,29.64,ESE,110,0.0,0.0,20,0.00,,,0.00,Wunderground v.1.15,2013-08-09 22:29:00,
2013-08-09 15:35:00,83.6,38.3,29.63,SSE,150,0.0,0.0,20,0.00,,,0.00,Wunderground v.1.15,2013-08-09 22:35:00,
2013-08-09 15:41:00,84.2,37.5,29.63,SSE,167,0.0,0.0,19,0.00,,,0.00,Wunderground v.1.15,2013-08-09 22:41:00,
2013-08-09 15:47:00,84.7,37.9,29.63,SSE,165,0.0,0.0,19,0.00,,,0.00,Wunderground v.1.15,2013-08-09 22:47:00,
2013-08-09 15:53:00,84.3,37.5,29.63,East,93,0.0,0.0,19,0.00,,,0.00,Wunderground v.1.15,2013-08-09 22:53:00,
2013-08-09 15:59:00,83.9,35.8,29.63,ESE,104,0.0,0.0,18,0.00,,,0.00,Wunderground v.1.15,2013-08-09 22:59:00,
2013-08-09 16:04:00,84.1,36.0,29.63,ESE,109,0.0,0.0,18,0.00,,,0.00,Wunderground v.1.15,2013-08-09 23:04:00,
2013-08-09 16:09:00,84.4,34.8,29.63,East,96,0.0,0.0,17,0.00,,,0.00,Wunderground v.1.15,2013-08-09 23:09:00,
2013-08-09 16:14:00,84.1,34.6,29.62,NNW,339,0.0,0.0,17,0.00,,,0.00,Wunderground v.1.15,2013-08-09 23:14:00,
2013-08-09 16:19:00,83.9,35.8,29.62,East,93,0.0,0.0,18,0.00,,,0.00,Wunderground v.1.15,2013-08-09 23:19:00,
2013-08-09 16:25:00,83.8,34.3,29.62,East,87,0.0,0.0,17,0.00,,,0.00,Wunderground v.1.15,2013-08-09 23:25:00,
2013-08-09 16:31:00,84.0,34.5,29.62,ENE,59,0.0,0.0,17,0.00,,,0.00,Wunderground v.1.15,2013-08-09 23:31:00,
2013-08-09 16:37:00,84.2,34.6,29.62,ENE,70,0.0,0.0,17,0.00,,,0.00,Wunderground v.1.15,2013-08-09 23:37:00,
2013-08-09 16:43:00,84.5,34.9,29.61,NNE,25,0.0,0.0,17,0.00,,,0.00,Wunderground v.1.15,2013-08-09 23:43:00,
2013-08-09 16:49:00,84.9,33.7,29.61,East,100,0.0,0.0,16,0.00,,,0.00,Wunderground v.1.15,2013-08-09 23:49:00,
2013-08-09 16:55:00,84.8,35.1,29.61,ENE,70,0.0,0.0,17,0.00,,,0.00,Wunderground v.1.15,2013-08-09 23:55:00,
2013-08-09 17:00:00,85.1,33.8,29.61,ESE,106,0.0,0.0,16,0.00,,,0.00,Wunderground v.1.15,2013-08-10 00:00:00,
2013-08-09 17:05:00,84.6,33.4,29.61,ENE,66,0.0,0.0,16,0.00,,,0.00,Wunderground v.1.15,2013-08-10 00:05:00,
2013-08-09 17:11:00,84.9,33.7,29.61,SE,131,0.0,0.0,16,0.00,,,0.00,Wunderground v.1.15,2013-08-10 00:11:00,
2013-08-09 17:17:00,85.3,34.0,29.61,East,100,0.0,0.0,16,0.00,,,0.00,Wunderground v.1.15,2013-08-10 00:17:00,
2013-08-09 17:18:00,85.4,34.1,29.61,SE,139,0.0,0.0,16,0.00,,,0.00,Wunderground v.1.15,2013-08-10 00:18:00,
2013-08-09 17:23:00,85.1,32.2,29.61,SE,124,0.0,0.0,15,0.00,,,0.00,Wunderground v.1.15,2013-08-10 00:23:00,
2013-08-09 17:29:00,85.4,32.5,29.61,SW,221,0.0,0.0,15,0.00,,,0.00,Wunderground v.1.15,2013-08-10 00:29:00,
2013-08-09 17:35:00,85.6,34.2,29.61,SSE,150,0.0,0.0,16,0.00,,,0.00,Wunderground v.1.15,2013-08-10 00:35:00,
2013-08-09 17:41:00,86.3,33.2,29.61,SSE,161,0.0,0.0,15,0.00,,,0.00,Wunderground v.1.15,2013-08-10 00:41:00,
2013-08-09 17:47:00,86.4,33.3,29.61,SW,227,0.0,0.0,15,0.00,,,0.00,Wunderground v.1.15,2013-08-10 00:47:00,
2013-08-09 17:53:00,86.0,33.0,29.61,West,265,0.0,0.0,15,0.00,,,0.00,Wunderground v.1.15,2013-08-10 00:53:00,
2013-08-09 17:59:00,86.8,31.9,29.60,South,176,0.0,0.0,14,0.00,,,0.00,Wunderground v.1.15,2013-08-10 00:59:00,
2013-08-09 18:04:00,87.1,32.1,29.60,ESE,118,0.0,0.0,14,0.00,,,0.00,Wunderground v.1.15,2013-08-10 01:04:00,
2013-08-09 18:10:00,85.9,32.9,29.60,NE,41,0.0,0.0,15,0.00,,,0.00,Wunderground v.1.15,2013-08-10 01:10:00,
2013-08-09 18:16:00,85.3,32.4,29.60,NE,34,0.0,0.0,15,0.00,,,0.00,Wunderground v.1.15,2013-08-10 01:16:00,
2013-08-09 18:22:00,85.1,32.2,29.60,East,83,0.0,0.0,15,0.00,,,0.00,Wunderground v.1.15,2013-08-10 01:22:00,
2013-08-09 18:28:00,85.6,34.2,29.60,SSE,161,0.0,0.0,16,0.00,,,0.00,Wunderground v.1.15,2013-08-10 01:28:00,
2013-08-09 18:34:00,86.3,33.2,29.60,SSW,206,0.0,0.0,15,0.00,,,0.00,Wunderground v.1.15,2013-08-10 01:34:00,
2013-08-09 18:40:00,86.7,33.5,29.60,SSW,194,0.0,0.0,15,0.00,,,0.00,Wunderground v.1.15,2013-08-10 01:40:00,
2013-08-09 18:46:00,86.6,33.4,29.60,WSW,257,0.0,0.0,15,0.00,,,0.00,Wunderground v.1.15,2013-08-10 01:46:00,
2013-08-09 18:52:00,86.2,31.4,29.60,West,262,0.0,0.0,14,0.00,,,0.00,Wunderground v.1.15,2013-08-10 01:52:00,
2013-08-09 18:58:00,85.9,32.9,29.61,WNW,297,0.0,0.0,15,0.00,,,0.00,Wunderground v.1.15,2013-08-10 01:58:00,
2013-08-09 19:04:00,85.1,32.2,29.61,WNW,301,0.0,0.0,15,0.00,,,0.00,Wunderground v.1.15,2013-08-10 02:04:00,
2013-08-09 19:10:00,84.9,32.1,29.61,West,259,0.0,0.0,15,0.00,,,0.00,Wunderground v.1.15,2013-08-10 02:10:00,
2013-08-09 19:16:00,84.4,33.3,29.61,West,274,0.0,0.0,16,0.00,,,0.00,Wunderground v.1.15,2013-08-10 02:16:00,
2013-08-09 19:22:00,84.1,36.0,29.61,West,262,0.0,0.0,18,0.00,,,0.00,Wunderground v.1.15,2013-08-10 02:22:00,
2013-08-09 19:28:00,83.9,35.8,29.62,WSW,248,0.0,0.0,18,0.00,,,0.00,Wunderground v.1.15,2013-08-10 02:28:00,
2013-08-09 19:34:00,83.2,35.3,29.62,WNW,295,0.0,0.0,18,0.00,,,0.00,Wunderground v.1.15,2013-08-10 02:34:00,
2013-08-09 19:40:00,82.6,36.1,29.62,NW,326,0.0,0.0,19,0.00,,,0.00,Wunderground v.1.15,2013-08-10 02:40:00,
2013-08-09 19:46:00,81.8,35.5,29.63,NW,307,0.0,0.0,19,0.00,,,0.00,Wunderground v.1.15,2013-08-10 02:46:00,
2013-08-09 19:52:00,81.3,35.1,29.63,WNW,288,0.0,0.0,19,0.00,,,0.00,Wunderground v.1.15,2013-08-10 02:52:00,
2013-08-09 19:58:00,80.7,34.6,29.63,West,274,0.0,0.0,19,0.00,,,0.00,Wunderground v.1.15,2013-08-10 02:58:00,
2013-08-09 20:04:00,80.2,31.4,29.63,SW,231,0.0,0.0,17,0.00,,,0.00,Wunderground v.1.15,2013-08-10 03:04:00,
2013-08-09 20:10:00,79.9,29.7,29.63,West,266,0.0,0.0,16,0.00,,,0.00,Wunderground v.1.15,2013-08-10 03:10:00,
2013-08-09 20:16:00,79.4,29.3,29.64,West,274,0.0,0.0,16,0.00,,,0.00,Wunderground v.1.15,2013-08-10 03:16:00,
2013-08-09 20:22:00,79.0,28.9,29.64,WSW,252,0.0,0.0,16,0.00,,,0.00,Wunderground v.1.15,2013-08-10 03:22:00,
2013-08-09 20:28:00,78.5,30.0,29.64,West,266,0.0,0.0,17,0.00,,,0.00,Wunderground v.1.15,2013-08-10 03:28:00,
2013-08-09 20:34:00,78.1,29.7,29.64,West,274,0.0,0.0,17,0.00,,,0.00,Wunderground v.1.15,2013-08-10 03:34:00,
2013-08-09 20:40:00,77.7,30.8,29.64,WSW,253,0.0,0.0,18,0.00,,,0.00,Wunderground v.1.15,2013-08-10 03:40:00,
2013-08-09 20:46:00,77.4,30.5,29.64,WSW,254,2.0,15.0,18,0.00,,,0.00,Wunderground v.1.15,2013-08-10 03:46:00,
2013-08-09 20:52:00,77.0,31.6,29.65,WNW,294,5.0,5.0,19,0.00,,,0.00,Wunderground v.1.15,2013-08-10 03:52:00,
2013-08-09 20:58:00,76.7,31.3,29.66,West,264,1.0,5.0,19,0.00,,,0.00,Wunderground v.1.15,2013-08-10 03:58:00,
2013-08-09 21:01:00,76.6,31.2,29.66,West,275,0.0,0.0,19,0.00,,,0.00,Wunderground v.1.15,2013-08-10 04:01:00,
2013-08-09 21:02:00,76.6,31.2,29.66,West,272,0.0,0.0,19,0.00,,,0.00,Wunderground v.1.15,2013-08-10 04:02:00,
2013-08-09 21:03:00,76.6,31.2,29.66,West,264,0.0,0.0,19,0.00,,,0.00,Wunderground v.1.15,2013-08-10 04:03:00,
2013-08-09 21:04:00,76.5,32.4,29.66,West,262,0.0,1.0,20,0.00,,,0.00,Wunderground v.1.15,2013-08-10 04:04:00,
2013-08-09 21:09:00,76.2,32.2,29.67,West,280,2.0,9.0,20,0.00,,,0.00,Wunderground v.1.15,2013-08-10 04:09:00,
2013-08-09 21:14:00,76.0,32.0,29.67,WNW,294,4.0,13.0,20,0.00,,,0.00,Wunderground v.1.15,2013-08-10 04:14:00,
2013-08-09 21:20:00,75.9,33.1,29.67,SW,231,2.0,2.0,21,0.00,,,0.00,Wunderground v.1.15,2013-08-10 04:20:00,
2013-08-09 21:26:00,75.8,33.1,29.67,West,269,0.0,2.0,21,0.00,,,0.00,Wunderground v.1.15,2013-08-10 04:26:00,
2013-08-09 21:32:00,75.6,32.9,29.68,WSW,254,0.0,0.0,21,0.00,,,0.00,Wunderground v.1.15,2013-08-10 04:32:00,
2013-08-09 21:38:00,75.5,34.0,29.68,West,278,0.0,0.0,22,0.00,,,0.00,Wunderground v.1.15,2013-08-10 04:38:00,
2013-08-09 21:44:00,75.4,33.9,29.68,WSW,250,0.0,0.0,22,0.00,,,0.00,Wunderground v.1.15,2013-08-10 04:44:00,
2013-08-09 21:49:00,75.2,33.7,29.68,West,261,0.0,0.0,22,0.00,,,0.00,Wunderground v.1.15,2013-08-10 04:49:00,
2013-08-09 21:55:00,75.1,34.8,29.68,WSW,246,0.0,0.0,23,0.00,,,0.00,Wunderground v.1.15,2013-08-10 04:55:00,
2013-08-09 22:00:00,75.0,34.7,29.69,West,265,0.0,0.0,23,0.00,,,0.00,Wunderground v.1.15,2013-08-10 05:00:00,
2013-08-09 22:06:00,75.0,34.7,29.69,West,281,0.0,0.0,23,0.00,,,0.00,Wunderground v.1.15,2013-08-10 05:06:00,
2013-08-09 22:12:00,74.8,34.5,29.69,WSW,257,0.0,0.0,23,0.00,,,0.00,Wunderground v.1.15,2013-08-10 05:12:00,
2013-08-09 22:18:00,74.6,35.4,29.69,WSW,247,0.0,0.0,24,0.00,,,0.00,Wunderground v.1.15,2013-08-10 05:18:00,
2013-08-09 22:24:00,74.4,35.2,29.70,WNW,296,0.0,0.0,24,0.00,,,0.00,Wunderground v.1.15,2013-08-10 05:24:00,
2013-08-09 22:30:00,74.1,35.0,29.70,WSW,258,0.0,0.0,24,0.00,,,0.00,Wunderground v.1.15,2013-08-10 05:30:00,
2013-08-09 22:36:00,73.7,34.6,29.70,West,274,0.0,0.0,24,0.00,,,0.00,Wunderground v.1.15,2013-08-10 05:36:00,
2013-08-09 22:42:00,73.5,34.5,29.71,West,267,0.0,0.0,24,0.00,,,0.00,Wunderground v.1.15,2013-08-10 05:42:00,
2013-08-09 22:48:00,73.2,34.2,29.71,WNW,294,0.0,0.0,24,0.00,,,0.00,Wunderground v.1.15,2013-08-10 05:48:00,
2013-08-09 22:54:00,72.9,34.0,29.71,WNW,297,0.0,0.0,24,0.00,,,0.00,Wunderground v.1.15,2013-08-10 05:54:00,
2013-08-09 23:00:00,72.5,34.7,29.71,WSW,252,1.0,1.0,25,0.00,,,0.00,Wunderground v.1.15,2013-08-10 06:00:00,
2013-08-09 23:06:00,72.3,34.5,29.72,West,262,1.0,1.0,25,0.00,,,0.00,Wunderground v.1.15,2013-08-10 06:06:00,
2013-08-09 23:12:00,72.1,34.3,29.72,West,266,0.0,0.0,25,0.00,,,0.00,Wunderground v.1.15,2013-08-10 06:12:00,
2013-08-09 23:18:00,72.0,34.2,29.72,WSW,244,0.0,0.0,25,0.00,,,0.00,Wunderground v.1.15,2013-08-10 06:18:00,
2013-08-09 23:24:00,71.9,34.1,29.72,West,272,0.0,0.0,25,0.00,,,0.00,Wunderground v.1.15,2013-08-10 06:24:00,
2013-08-09 23:30:00,71.7,34.0,29.72,West,271,0.0,0.0,25,0.00,,,0.00,Wunderground v.1.15,2013-08-10 06:30:00,
2013-08-09 23:36:00,71.5,33.8,29.72,West,264,3.0,12.0,25,0.00,,,0.00,Wunderground v.1.15,2013-08-10 06:36:00,
2013-08-09 23:42:00,71.4,33.7,29.73,WSW,250,6.0,9.0,25,0.00,,,0.00,Wunderground v.1.15,2013-08-10 06:42:00,
2013-08-09 23:47:00,71.2,33.6,29.73,West,276,3.0,9.0,25,0.00,,,0.00,Wunderground v.1.15,2013-08-10 06:47:00,
2013-08-09 23:53:00,70.9,33.3,29.73,WSW,256,1.0,3.0,25,0.00,,,0.00,Wunderground v.1.15,2013-08-10 06:53:00,
2013-08-09 23:59:00,70.9,33.3,29.73,WSW,250,0.0,3.0,25,0.00,,,0.00,Wunderground v.1.15,2013-08-10 06:59:00,